Kaneohe, HI

9:30 PM HST on September 30, 2016 (GMT -1000)
Kaneohe Bay Marine Corps Air Facility

Weather History for PHNG - April, 2013

Change the Weather History Date:

Tuesday, April 23, 2013

  Actual Average Record
Temperature  
Mean Temperature 76 °F -  
Max Temperature 81 °F 76 °F 82 °F (1997)
Min Temperature 71 °F 68 °F 66 °F (2008)
Cooling Degree Days 11    
Growing Degree Days 26 (Base 50)    
Moisture  
Dew Point 69 °F    
Average Humidity 82    
Maximum Humidity 100    
Minimum Humidity 59    
Precipitation  
Precipitation 0.17 in - - ()
Sea Level Pressure  
Sea Level Pressure 30.02 in    
Wind  
Wind Speed 6 mph (WSW)    
Max Wind Speed 13 mph    
Max Gust Speed 18 mph    
Visibility 9 miles    
Events Rain , Thunderstorm    
Averages and records for this station are not official NWS values.
T = Trace of Precipitation, MM = Missing Value Source: NWS Daily Summary

Daily Weather History Graph

Daily Weather History Graph

Search for Another Location

Airport or City:

Trip Planner

Search our weather history database for the weather conditions in past years. The results will help you decide how hot, cold, wet, or windy it might be!

Date:

Astronomy

Apr. 23, 2013 Rise Set
Actual Time 6:05 AM HST 6:53 PM HST
Civil Twilight 5:42 AM HST 7:16 PM HST
Nautical Twilight 5:15 AM HST 7:43 PM HST
Astronomical Twilight 4:47 AM HST 8:11 PM HST
Moon 5:11 PM HST (4/23) 4:24 AM HST (4/23)
Length of Visible Light 13h 34m
Length of Day
12h 48m
Waxing Gibbous, 95% of the Moon is Illuminated
Apr 23
Waxing Gibbous
Apr 25
Full
May 2
Last Quarter
May 9
New
May 17
First Quarter

Hourly Weather History & Observations

Time (HST) Temp. Heat Index Dew Point Humidity Pressure Visibility Wind Dir Wind Speed Gust Speed Precip Events Conditions
12:57 AM 73.4 °F - 68.0 °F 83% 29.99 in 10.0 mi SSE 3.5 mph - 0.01 in   Clear
1:57 AM 73.4 °F - 66.9 °F 80% 29.98 in 10.0 mi SSE 5.8 mph - N/A   Scattered Clouds
2:57 AM - - - N/A% 29.97 in 10.0 mi South 3.5 mph - N/A   Clear
3:57 AM 71.6 °F - 66.9 °F 85% 29.96 in 10.0 mi South 5.8 mph - N/A   Partly Cloudy
4:57 AM 73.4 °F - 66.0 °F 78% 29.97 in 10.0 mi South 8.1 mph - N/A   Partly Cloudy
5:57 AM 75.2 °F - 66.0 °F 73% 29.98 in 10.0 mi South 6.9 mph - N/A   Mostly Cloudy
6:57 AM 75.2 °F - 66.0 °F 73% 30.00 in 10.0 mi SSW 4.6 mph - N/A   Clear
7:57 AM 75.2 °F - 64.0 °F 68% 30.02 in 10.0 mi SW 8.1 mph - N/A   Mostly Cloudy
8:57 AM 79.7 °F - 64.9 °F 61% 30.03 in 10.0 mi SSW 12.7 mph - N/A   Scattered Clouds
9:57 AM 79.7 °F - 64.0 °F 59% 30.03 in 10.0 mi South 8.1 mph - N/A   Scattered Clouds
10:57 AM 75.2 °F - 64.9 °F 70% 30.04 in 10.0 mi SW 4.6 mph 18.4 mph 0.04 in Rain Heavy Rain
11:57 AM 81.3 °F 85.4 °F 71.1 °F 71% 30.03 in 10.0 mi South 9.2 mph - 0.00 in Thunderstorm Thunderstorm
12:19 PM 80.6 °F 83.9 °F 69.8 °F 70% 30.04 in 6.2 mi Variable 3.5 mph - N/A   Partly Cloudy
12:57 PM 79.2 °F - 69.1 °F 71% 30.02 in 10.0 mi North 11.5 mph - N/A   Overcast
1:57 PM 77.0 °F - 73.0 °F 88% 30.00 in 10.0 mi North 11.5 mph - 0.00 in Rain Light Rain
2:57 PM 77.0 °F - 71.1 °F 82% 29.99 in 10.0 mi North 9.2 mph - 0.01 in   Mostly Cloudy
3:57 PM 77.4 °F - 71.1 °F 81% 29.99 in 10.0 mi NNE 6.9 mph - 0.00 in   Mostly Cloudy
4:57 PM 76.1 °F - 71.1 °F 84% 29.99 in 10.0 mi North 9.2 mph - N/A   Mostly Cloudy
5:57 PM 74.8 °F - 72.0 °F 91% 30.00 in 10.0 mi North 5.8 mph - N/A   Mostly Cloudy
6:24 PM - - - N/A% - - North - - N/A   Unknown
6:57 PM 74.8 °F - 71.1 °F 88% 30.02 in 10.0 mi NW 4.6 mph - 0.00 in   Mostly Cloudy
7:04 PM 75.2 °F - 69.8 °F 83% 30.03 in 6.2 mi NNW 4.6 mph - 0.00 in Rain Light Rain
7:57 PM 73.6 °F - 70.0 °F 88% 30.04 in 10.0 mi Calm Calm - 0.00 in   Mostly Cloudy
8:07 PM 73.4 °F - 69.8 °F 88% 30.05 in 6.2 mi Calm Calm - N/A   Overcast
8:24 PM 73.4 °F - 69.8 °F 88% 30.06 in 6.2 mi North 4.6 mph - N/A   Overcast
8:49 PM 73.4 °F - 69.8 °F 88% 30.06 in 6.2 mi NW 6.9 mph - N/A   Overcast
8:57 PM 73.0 °F - 70.0 °F 90% 30.05 in 10.0 mi NW 6.9 mph - N/A   Overcast
9:00 PM - - - N/A% - - North - - N/A   Unknown
9:57 PM 73.4 °F - 73.0 °F 99% 30.07 in 6.0 mi Calm Calm - 0.03 in Rain Rain
10:04 PM 73.4 °F - 73.4 °F 100% 30.08 in 6.0 mi Calm Calm - 0.03 in Rain Rain
10:57 PM 74.1 °F - 73.9 °F 99% 30.07 in 10.0 mi Calm Calm - 0.05 in Rain Light Rain
11:57 PM 73.4 °F - 71.6 °F 94% 30.06 in 6.0 mi Calm Calm - 0.03 in Rain Light Rain